Location: Fenile
(46.0500°N, 9.5500°E)
Time: 20:15:32
(UTC+00:00)

Cosmos 1933 Rocket - Pass Details

Date: 03 March 2021
Orbit: 607 x 629 km, 82.5° (Epoch: 13 April)

Event Time Altitude Azimuth Distance (km) Brightness Sun altitude
Rises 18:56:03 0° 199° (SSW) 2,859 7.1 -18.9°
Reaches altitude 10° 18:58:17 10° 204° (SSW) 1,962 6.3 -19.3°
Maximum altitude 19:02:33 55° 282° (WNW) 746 4.3 -20.0°
Drops below altitude 10° 19:06:52 10° 0° (N) 1,991 6.3 -20.8°
Sets 19:09:10 0° 5° (N) 2,905 7.1 -21.2°
